Temp
-11 -10 -10 -11 -11 -11 -11 -10 -10 -10 -9 -10 -9 -9 -9 -9 -9 -9 -8 -8 -8 -9 -8 -8 -9 -9 -9 -9 -8 -8 -9 -9 -9 -8 -5 -8 -7 -7 -7 -7 -7 -7 -8 -7
-12 -12 -11 -10 -10 -11 -11 -11 -10 -10 -10 -10 -10 -10 -10 -10 -10 -10 -9 -8 -8 -9 -8 -8 -9 -10 -9 -9 -9 -9 -9 -9 -8 -8 -8 -8 -8 -8 -7 -7 -7 -7 -7 -7
-11 -12 -12 -11 -11 -11 -10 -11 -11 -11 -11 -11 -10 -10 -10 -10 -10 -10 -9 -9 -8 -9 -9 -9 -9 -8 -8 -9 -8 -8 -8 -9 -9 -8 -8 -8 -8 -9 -8 -8 -8 -8 -8 -7
-11 -11 -11 -11 -11 -12 -12 -11 -11 -11 -11 -11 -11 -10 -10 -10 -10 -10 -10 -9 -10 -9 -9 -9 -9 -9 -8 -9 -9 -8 -8 -8 -9 -8 -8 -8 -8 -9 -8 -8 -8 -8 -7 -7
-12 -12 -11 -11 -12 -12 -12 -12 -12 -11 -12 -11 -11 -11 -10 -10 -10 -10 -10 -10 -10 -9 -9 -9 -8 -8 -8 -8 -8 -9 -8 -8 -8 -8 -8 -8 -9 -8 -8 -8 -7 -7 -7 -7
-12 -11 -11 -12 -13 -12 -12 -12 -12 -11 -11 -11 -11 -11 -11 -11 -10 -10 -10 -10 -10 -9 -9 -9 -8 -8 -8 -10 -8 -8 -9 -8 -8 -8 -8 -9 -8 -8 -8 -7 -7 -7 -7 -7
-13 -13 -12 -13 -13 -13 -13 -12 -12 -11 -11 -11 -11 -11 -11 -11 -11 -10 -10 -10 -10 -10 -10 -9 -8 -8 -7 -8 -6 -9 -10 -9 -8 -9 -9 -8 -8 -8 -8 -7 -7 -7 -7 -7
-14 -13 -13 -13 -14 -14 -12 -12 -12 -11 -11 -11 -11 -11 -11 -11 -11 -11 -10 -11 -10 -10 -10 -9 -9 -9 -9 -9 -10 -10 -10 -9 -9 -8 -8 -8 -8 -8 -7 -7 -7 -7 -7 -7
-14 -14 -14 -13 -13 -13 -13 -13 -13 -12 -11 -12 -12 -12 -11 -11 -10 -11 -11 -11 -10 -10 -10 -9 -9 -10 -10 -9 -9 -9 -10 -9 -8 -8 -8 -8 -8 -7 -7 -7 -7 -7 -7 -7
-14 -14 -14 -14 -14 -14 -13 -13 -13 -13 -12 -12 -12 -12 -12 -12 -11 -11 -11 -11 -10 -10 -9 -9 -9 -10 -10 -10 -10 -10 -9 -9 -8 -8 -8 -8 -8 -8 -7 -7 -7 -8 -7 -7
-15 -15 -15 -14 -14 -14 -13 -13 -13 -12 -12 -12 -12 -11 -12 -12 -12 -11 -11 -11 -11 -10 -10 -9 -9 -9 -9 -9 -9 -9 -9 -8 -8 -8 -8 -8 -8 -8 -8 -8 -8 -8 -7 -6
-15 -16 -15 -15 -14 -14 -14 -14 -13 -13 -12 -12 -12 -12 -12 -12 -12 -11 -11 -11 -11 -11 -10 -9 -9 -9 -9 -9 -8 -8 -8 -8 -8 -8 -8 -8 -8 -8 -9 -9 -8 -8 -7 -7
-15 -15 -15 -15 -15 -15 -14 -14 -13 -13 -12 -12 -13 -12 -12 -12 -11 -11 -11 -12 -11 -10 -10 -10 -9 -9 -9 -9 -9 -9 -9 -9 -8 -8 -8 -8 -9 -9 -9 -9 -8 -8 -8 -7
-15 -15 -15 -15 -15 -14 -14 -13 -13 -13 -12 -12 -13 -12 -12 -11 -11 -11 -11 -12 -12 -11 -10 -10 -9 -9 -9 -9 -9 -9 -9 -8 -8 -9 -9 -9 -9 -10 -10 -9 -9 -9 -9 -8
-15 -14 -15 -15 -15 -15 -14 -14 -13 -13 -12 -12 -12 -12 -11 -11 -11 -11 -11 -12 -12 -11 -10 -10 -9 -9 -9 -9 -9 -9 -9 -9 -9 -9 -9 -9 -10 -10 -10 -10 -10 -10 -10 -9
-15 -15 -14 -15 -15 -14 -13 -13 -13 -12 -13 -13 -13 -13 -12 -12 -12 -11 -11 -11 -12 -11 -11 -10 -10 -9 -9 -9 -9 -9 -9 -9 -9 -9 -9 -10 -10 -10 -10 -10 -10 -10 -10 -10
-15 -15 -14 -15 -15 -14 -13 -13 -13 -12 -12 -13 -13 -13 -12 -12 -12 -12 -12 -12 -12 -11 -11 -10 -10 -9 -9 -9 -9 -10 -10 -9 -9 -9 -9 -10 -10 -10 -10 -10 -11 -11 -11 -10
-15 -14 -14 -14 -14 -14 -13 -12 -12 -12 -13 -13 -13 -13 -13 -12 -12 -12 -12 -12 -11 -11 -10 -10 -10 -10 -10 -10 -10 -10 -10 -10 -10 -10 -10 -11 -10 -11 -11 -11 -11 -11 -11 -11
-14 -14 -14 -13 -13 -13 -13 -12 -12 -12 -12 -12 -13 -13 -12 -12 -12 -12 -12 -12 -11 -10 -10 -11 -11 -11 -10 -10 -10 -10 -10 -10 -10 -10 -10 -11 -11 -11 -11 -11 -11 -11 -11 -11
-14 -14 -14 -13 -13 -13 -12 -11 -11 -12 -12 -13 -13 -13 -13 -12 -12 -12 -12 -11 -11 -10 -10 -10 -11 -11 -11 -11 -10 -10 -10 -11 -10 -11 -11 -11 -11 -11 -11 -11 -11 -11 -11 -11
-14 -14 -13 -12 -13 -12 -12 -11 -11 -12 -12 -12 -12 -12 -12 -12 -11 -12 -12 -11 -11 -11 -10 -11 -11 -11 -11 -11 -11 -11 -11 -11 -11 -12 -11 -11 -11 -11 -11 -11 -10 -11 -11 -11
-13 -13 -13 -13 -12 -12 -12 -11 -11 -12 -11 -11 -11 -11 -12 -11 -11 -12 -11 -11 -11 -11 -11 -11 -11 -11 -11 -11 -11 -11 -11 -11 -11 -11 -11 -11 -11 -11 -11 -11 -11 -11 -11 -11
-13 -13 -13 -13 -12 -13 -12 -11 -11 -11 -10 -11 -11 -10 -10 -10 -11 -11 -11 -11 -11 -11 -11 -11 -11 -11 -11 -11 -11 -11 -11 -11 -11 -11 -11 -11 -11 -11 -11 -11 -11 -11 -11 -11
-13 -13 -13 -13 -12 -13 -12 -12 -12 -11 -11 -11 -11 -11 -11 -11 -12 -11 -11 -12 -11 -12 -11 -12 -11 -11 -12 -12 -12 -12 -12 -12 -12 -12 -11 -11 -11 -11 -11 -11 -11 -11 -11 -11
-13 -13 -13 -13 -12 -12 -12 -12 -11 -11 -11 -11 -11 -11 -11 -12 -12 -12 -12 -12 -12 -12 -11 -11 -11 -12 -12 -12 -12 -12 -12 -12 -12 -12 -12 -11 -11 -12 -11 -11 -11 -11 -11 -12
-12 -12 -13 -13 -12 -12 -12 -12 -12 -12 -12 -12 -12 -12 -12 -12 -12 -12 -12 -12 -12 -11 -11 -11 -11 -12 -12 -12 -12 -12 -12 -12 -13 -13 -12 -12 -12 -12 -12 -12 -12 -12 -12 -12
-12 -12 -13 -13 -12 -12 -12 -12 -12 -12 -12 -12 -12 -12 -12 -12 -12 -12 -12 -12 -12 -12 -12 -12 -12 -12 -12 -12 -12 -12 -12 -12 -12 -13 -12 -12 -12 -12 -12 -12 -12 -12 -12 -13
Height
5803 5809 5814 5816 5819 5820 5821 5822 5823 5825 5827 5831 5833 5835 5837 5840 5843 5846 5848 5849 5850 5851 5852 5851 5851 5850 5853 5853 5856 5856 5858 5859 5861 5866 5872 5870 5871 5872 5875 5876 5875 5876 5876 5876
5792 5797 5799 5803 5809 5811 5813 5815 5817 5818 5820 5824 5828 5831 5834 5835 5837 5840 5842 5844 5846 5846 5847 5846 5845 5845 5845 5845 5849 5854 5855 5856 5859 5860 5862 5866 5866 5868 5870 5870 5870 5869 5868 5867
5777 5784 5786 5790 5795 5801 5805 5807 5810 5812 5816 5818 5820 5825 5829 5831 5833 5834 5836 5837 5839 5840 5841 5840 5839 5839 5840 5839 5842 5847 5851 5852 5853 5857 5860 5861 5859 5862 5865 5864 5865 5862 5861 5861
5762 5768 5770 5777 5785 5791 5793 5798 5799 5804 5809 5812 5813 5815 5820 5824 5827 5829 5830 5831 5832 5834 5834 5833 5833 5833 5832 5834 5838 5842 5844 5846 5846 5850 5854 5856 5851 5856 5859 5858 5857 5855 5854 5854
5748 5751 5757 5763 5769 5777 5781 5787 5790 5793 5798 5802 5805 5808 5812 5817 5821 5823 5824 5825 5825 5826 5825 5824 5823 5823 5824 5825 5828 5832 5836 5839 5841 5845 5846 5848 5849 5851 5851 5850 5848 5847 5847 5845
5738 5739 5742 5752 5758 5761 5768 5774 5778 5784 5789 5792 5795 5799 5806 5810 5813 5814 5815 5817 5817 5818 5816 5815 5813 5814 5810 5809 5815 5822 5825 5831 5836 5842 5841 5843 5844 5843 5841 5840 5840 5840 5839 5836
5724 5725 5730 5736 5744 5750 5755 5763 5768 5773 5777 5781 5786 5792 5797 5800 5806 5807 5810 5812 5812 5810 5809 5808 5806 5803 5795 5795 5785 5809 5818 5826 5830 5834 5834 5834 5834 5834 5833 5833 5832 5831 5830 5826
5712 5714 5719 5724 5730 5736 5744 5747 5753 5760 5764 5769 5776 5780 5787 5792 5798 5801 5804 5806 5807 5806 5803 5800 5799 5796 5789 5790 5786 5802 5813 5818 5823 5827 5826 5827 5828 5828 5828 5826 5823 5820 5817 5816
5701 5705 5708 5710 5715 5722 5729 5736 5742 5748 5753 5759 5766 5771 5776 5783 5788 5792 5797 5799 5800 5801 5801 5800 5798 5796 5795 5794 5798 5804 5810 5816 5819 5819 5820 5822 5823 5822 5820 5818 5813 5810 5808 5806
5690 5694 5696 5700 5703 5708 5714 5724 5730 5736 5742 5747 5756 5763 5769 5775 5779 5784 5788 5791 5793 5795 5796 5796 5795 5796 5794 5796 5799 5803 5807 5809 5811 5812 5814 5815 5816 5813 5812 5809 5807 5802 5800 5799
5682 5685 5685 5689 5694 5698 5704 5712 5718 5724 5730 5737 5746 5752 5760 5766 5770 5775 5779 5782 5786 5788 5790 5791 5791 5791 5792 5792 5792 5797 5798 5801 5804 5806 5808 5808 5806 5805 5803 5800 5797 5793 5794 5791
5673 5674 5675 5682 5685 5691 5696 5702 5707 5713 5719 5729 5737 5743 5751 5757 5762 5764 5769 5774 5778 5781 5784 5785 5785 5786 5787 5788 5789 5791 5793 5795 5798 5800 5801 5799 5798 5797 5796 5794 5790 5789 5786 5785
5666 5666 5668 5674 5677 5681 5686 5692 5697 5703 5712 5723 5728 5734 5741 5747 5751 5755 5761 5767 5770 5774 5776 5779 5780 5781 5782 5784 5785 5787 5788 5790 5793 5794 5793 5792 5791 5790 5790 5788 5785 5783 5779 5778
5659 5660 5664 5667 5669 5670 5677 5683 5689 5696 5705 5714 5719 5727 5733 5735 5736 5744 5752 5757 5762 5767 5769 5771 5773 5775 5777 5779 5781 5782 5783 5784 5786 5786 5785 5785 5785 5784 5783 5783 5781 5778 5775 5771
5652 5655 5657 5659 5663 5666 5669 5675 5682 5690 5697 5706 5712 5721 5725 5723 5730 5736 5743 5751 5756 5760 5762 5765 5767 5769 5771 5773 5775 5776 5777 5777 5779 5778 5779 5780 5779 5779 5778 5777 5775 5774 5770 5766
5649 5650 5653 5655 5656 5659 5662 5668 5676 5683 5691 5700 5708 5715 5720 5725 5730 5734 5741 5745 5749 5753 5756 5758 5761 5761 5763 5766 5767 5768 5770 5770 5772 5773 5773 5773 5772 5772 5773 5773 5772 5769 5766 5763
5645 5647 5649 5651 5651 5652 5657 5664 5671 5678 5685 5694 5702 5709 5714 5719 5724 5730 5734 5739 5745 5748 5752 5753 5753 5754 5757 5758 5760 5763 5765 5766 5766 5766 5766 5766 5767 5768 5768 5767 5765 5765 5763 5761
5641 5643 5645 5646 5646 5648 5653 5659 5666 5672 5679 5687 5694 5701 5709 5715 5720 5723 5729 5735 5739 5742 5745 5747 5747 5747 5749 5751 5753 5755 5758 5759 5759 5759 5759 5761 5762 5762 5761 5760 5760 5761 5761 5758
5637 5639 5640 5642 5643 5646 5652 5657 5662 5669 5676 5682 5688 5695 5703 5709 5714 5719 5725 5731 5735 5738 5740 5741 5741 5741 5743 5746 5748 5749 5750 5752 5753 5754 5755 5755 5755 5755 5755 5756 5757 5757 5756 5754
5633 5635 5636 5637 5640 5644 5649 5655 5661 5665 5672 5679 5686 5693 5698 5702 5708 5715 5721 5727 5732 5733 5733 5734 5735 5736 5737 5740 5742 5743 5744 5745 5746 5747 5748 5748 5750 5751 5752 5752 5753 5753 5751 5750
5632 5633 5635 5637 5640 5643 5647 5652 5658 5663 5669 5675 5681 5688 5693 5699 5706 5712 5717 5723 5728 5729 5728 5728 5729 5730 5730 5731 5733 5736 5737 5738 5740 5742 5743 5745 5746 5747 5748 5748 5748 5748 5747 5746
5631 5633 5635 5639 5642 5644 5646 5650 5655 5661 5666 5672 5678 5684 5689 5696 5702 5706 5711 5717 5721 5722 5723 5723 5724 5725 5726 5727 5728 5730 5732 5734 5735 5737 5739 5740 5741 5743 5744 5744 5744 5745 5744 5743
5631 5633 5637 5640 5643 5645 5646 5649 5654 5658 5664 5669 5675 5680 5684 5689 5696 5699 5705 5711 5714 5717 5720 5720 5719 5720 5721 5723 5724 5725 5726 5727 5729 5731 5733 5735 5736 5737 5738 5739 5740 5740 5739 5738
5632 5635 5638 5640 5642 5644 5646 5649 5653 5656 5659 5664 5667 5671 5676 5681 5687 5693 5699 5705 5709 5712 5715 5713 5713 5715 5717 5719 5720 5720 5720 5721 5723 5725 5727 5728 5730 5731 5733 5734 5735 5734 5734 5733
5631 5633 5637 5638 5641 5642 5644 5645 5645 5647 5651 5658 5663 5668 5674 5677 5680 5685 5691 5698 5704 5707 5708 5706 5707 5708 5709 5710 5712 5714 5714 5715 5716 5718 5719 5721 5723 5724 5726 5727 5727 5728 5728 5728
5632 5635 5636 5638 5641 5642 5643 5643 5645 5646 5647 5651 5657 5664 5668 5673 5677 5682 5686 5693 5698 5701 5700 5699 5700 5701 5702 5703 5704 5704 5705 5706 5708 5709 5710 5712 5713 5715 5717 5718 5719 5719 5720 5719
5630 5634 5638 5639 5641 5642 5643 5645 5647 5648 5650 5652 5654 5659 5665 5670 5675 5677 5682 5687 5690 5692 5693 5692 5693 5695 5695 5697 5698 5699 5698 5698 5699 5701 5703 5704 5706 5707 5708 5709 5710 5710 5710 5710
Wind_Speed
45 37 31 32 35 36 38 36 34 30 25 19 21 26 23 20 22 23 23 17 16 10 8 13 18 20 15 21 28 25 23 21 22 24 27 23 21 21 21 20 21 23 21 22
52 47 45 38 33 36 38 39 38 36 32 20 22 17 22 21 23 22 23 19 14 8 8 8 14 14 22 25 29 26 25 21 21 24 23 20 20 19 18 19 22 22 24 28
50 52 52 48 43 39 34 33 38 35 33 33 28 24 21 27 23 24 24 21 15 11 10 14 14 22 21 19 27 27 25 21 21 24 23 22 17 18 21 21 23 24 26 28
52 50 57 54 46 43 41 37 37 35 32 30 33 32 22 23 28 28 26 25 22 15 15 18 18 21 23 14 16 23 24 21 22 23 24 29 20 18 23 24 25 27 28 27
55 55 55 52 53 53 49 45 45 42 37 33 31 36 30 20 20 25 29 28 30 24 21 22 26 26 28 25 29 23 28 23 23 27 26 25 16 20 23 26 28 28 27 27
54 57 58 50 45 49 54 52 51 47 46 40 35 33 36 28 23 23 25 28 28 26 27 27 29 28 34 35 38 29 26 24 26 29 25 21 24 24 25 27 27 29 28 26
49 54 55 51 47 46 49 50 50 47 45 45 43 38 35 34 23 20 23 27 24 23 25 27 27 21 18 35 52 33 25 27 27 23 25 26 24 26 28 29 30 30 29 28
44 48 50 48 46 45 45 47 45 48 47 43 43 45 40 36 29 26 22 22 22 18 22 21 19 18 12 26 22 23 23 25 23 29 24 23 26 29 30 29 29 28 27 28
40 41 44 45 46 46 43 41 40 38 47 44 36 35 39 35 34 29 19 22 19 18 16 16 14 14 15 20 29 23 21 24 27 22 22 25 29 28 28 30 27 26 26 28
35 37 41 44 44 43 43 39 40 39 39 42 42 36 31 30 33 31 24 22 15 17 18 17 17 16 18 19 18 17 19 20 21 22 25 26 26 26 29 27 28 26 26 27
30 31 38 41 42 41 37 33 34 37 38 40 40 40 33 29 34 30 29 28 25 22 24 20 19 19 21 22 20 21 20 20 22 24 24 25 24 27 25 25 26 25 27 26
27 28 34 33 36 35 34 30 31 38 36 36 35 36 30 32 31 29 32 29 25 29 28 22 21 21 22 22 22 22 21 22 22 23 23 22 22 21 22 23 25 28 27 26
21 25 28 27 27 31 32 30 33 37 33 29 31 32 31 37 38 34 28 30 31 26 25 24 23 22 20 20 21 22 21 21 22 22 19 18 18 18 20 23 25 28 27 24
16 18 17 21 25 33 32 32 33 28 29 30 38 35 36 41 34 36 34 32 29 29 28 24 22 23 23 22 21 21 21 21 20 18 17 17 16 17 20 22 25 24 26 25
20 17 18 21 23 26 29 30 33 28 25 33 37 38 29 32 33 34 34 29 29 30 27 25 22 21 22 24 24 22 21 20 20 18 17 17 16 17 19 20 22 24 26 27
15 15 19 19 22 26 28 26 31 29 26 34 35 36 41 31 31 35 28 29 30 24 21 23 24 24 24 23 25 26 25 23 21 19 17 18 17 18 19 21 21 22 22 25
13 16 18 20 22 27 26 25 23 25 28 35 35 36 33 36 28 29 32 31 27 26 26 26 26 26 26 26 25 26 27 26 22 19 19 18 18 20 20 19 20 21 21 23
11 14 16 21 24 27 28 30 26 25 31 37 34 32 33 32 34 33 26 28 32 31 29 25 23 23 23 23 22 24 25 24 21 18 20 19 20 19 19 18 19 21 20 17
9 13 14 19 23 26 25 25 21 29 29 34 33 31 28 30 30 27 28 31 34 32 25 19 17 18 20 19 21 22 23 21 20 20 20 20 19 18 18 18 18 19 17 15
8 8 12 17 23 25 26 27 25 25 30 32 33 31 34 31 30 28 30 31 27 23 22 21 19 17 16 16 19 19 19 19 18 19 19 19 18 18 17 17 17 17 15 15
8 7 13 18 19 17 21 30 32 27 28 27 32 34 35 36 33 30 27 23 20 21 23 19 18 17 15 15 16 19 18 18 18 19 19 19 18 16 16 17 17 16 15 14
9 9 24 26 19 15 17 23 28 28 31 27 33 37 33 33 31 31 29 27 22 19 21 20 19 19 16 16 17 18 19 19 21 22 21 18 16 15 15 15 15 14 12 11
7 8 23 25 24 20 13 11 15 25 31 33 32 30 30 34 35 34 26 25 21 21 21 19 17 18 18 20 20 19 20 21 21 22 21 19 19 17 15 14 14 14 12 10
6 9 14 15 23 25 20 17 18 25 34 37 39 37 34 30 37 43 40 27 26 26 28 22 21 21 19 20 20 18 19 22 24 23 22 20 20 19 18 18 16 15 16 15
3 5 8 11 19 18 16 13 14 23 33 34 35 29 33 30 31 35 37 39 34 30 27 22 22 24 22 21 22 21 19 21 24 24 24 23 23 23 24 22 19 18 18 19
4 6 9 10 10 7 14 11 8 7 14 31 44 32 30 30 30 32 32 29 29 27 25 24 24 25 25 25 25 24 24 24 25 27 28 29 28 28 27 25 25 25 25 24
4 11 11 8 10 16 9 5 7 8 7 16 23 29 31 33 36 30 24 26 25 23 23 21 21 24 25 26 28 27 27 27 26 28 30 31 31 31 31 33 33 33 33 33
Wind_Direction
268 265 243 237 244 250 255 259 261 266 263 264 235 227 229 230 239 241 237 226 220 235 272 280 251 268 280 274 239 235 232 232 238 244 237 243 244 252 257 266 274 263 268 287
254 257 262 257 236 242 250 257 264 270 275 274 252 250 239 228 234 247 258 242 236 239 281 321 253 254 271 290 241 242 239 238 249 248 244 243 245 257 259 265 273 276 277 280
250 247 251 254 257 257 250 251 257 263 268 274 273 259 246 234 241 251 257 264 260 256 274 302 267 253 264 278 232 242 246 244 254 258 248 243 242 257 266 270 273 280 282 281
249 245 245 249 248 252 257 258 259 257 258 271 267 270 263 242 244 253 261 271 283 279 269 271 289 268 269 243 243 248 248 250 260 254 247 245 247 255 270 277 281 283 281 280
246 246 248 246 242 241 244 248 251 252 253 258 266 261 264 266 257 265 270 279 281 295 277 279 282 265 264 263 247 244 238 242 246 244 249 256 275 263 273 281 287 285 280 282
250 249 248 247 243 243 243 243 247 251 255 255 253 254 259 265 264 265 262 268 284 292 292 282 272 268 273 261 241 232 216 231 233 238 247 259 269 276 285 290 289 280 279 290
250 250 248 248 243 239 241 245 246 249 251 253 251 252 251 254 253 264 260 266 277 284 284 267 265 282 281 236 210 206 209 220 228 246 253 263 278 285 287 285 286 280 278 287
248 251 250 250 250 245 243 244 245 243 245 253 251 251 251 250 246 260 267 266 265 267 283 274 273 282 270 210 163 190 204 211 224 243 260 272 277 281 281 282 284 287 282 289
245 245 248 249 247 245 243 243 241 244 237 242 248 252 251 254 251 237 252 255 253 244 275 264 261 260 253 208 192 199 201 219 235 251 265 271 273 278 283 284 288 290 291 292
245 243 242 242 245 245 245 240 240 238 235 236 239 241 246 252 240 232 241 242 230 245 264 253 250 238 241 206 220 226 229 244 256 265 266 268 275 280 283 286 287 293 294 294
249 246 242 239 239 241 244 241 233 235 233 234 237 239 237 235 241 235 237 245 234 244 263 260 243 237 229 235 242 248 252 256 261 264 265 272 279 283 287 291 294 298 299 299
248 247 244 241 242 239 239 237 231 230 234 224 224 228 230 218 226 229 232 237 246 239 250 246 237 234 236 236 238 242 245 250 254 259 267 276 279 284 289 292 297 298 299 300
243 248 242 233 238 235 233 227 226 231 231 213 208 212 213 218 217 220 226 228 237 234 243 233 231 234 233 235 236 238 241 245 251 258 269 270 276 281 287 293 297 298 302 305
240 252 240 227 230 228 228 226 222 221 221 205 202 203 207 211 204 199 212 215 227 232 230 230 230 232 234 234 235 234 239 243 251 262 266 269 272 281 288 293 295 298 299 307
232 231 223 223 224 228 225 225 224 215 208 202 203 204 219 207 209 196 202 212 225 229 230 231 235 236 241 240 241 242 244 249 257 258 261 261 266 278 284 290 294 293 300 310
241 235 221 222 220 221 225 219 219 214 197 197 191 202 215 214 216 215 216 219 222 222 234 239 238 238 245 248 246 247 248 251 253 252 255 258 267 275 280 285 285 289 300 312
232 226 217 216 221 223 218 214 203 205 202 195 191 205 212 210 217 222 224 217 223 228 238 235 237 238 242 244 244 244 245 246 246 246 253 257 264 269 275 280 280 281 294 305
238 226 215 215 223 216 212 208 213 198 192 189 195 206 210 199 209 214 207 216 222 230 237 238 236 239 243 244 242 242 244 247 245 247 250 254 259 268 275 279 278 279 283 294
227 230 236 223 218 213 215 201 208 197 193 195 199 202 199 198 211 219 216 226 230 239 235 229 234 241 244 245 243 240 239 242 245 246 248 252 262 268 270 274 274 274 277 286
243 252 228 200 206 206 207 202 196 203 199 205 206 205 222 229 213 208 216 222 226 231 229 230 233 238 242 248 249 242 239 236 245 251 253 257 261 262 265 269 270 271 277 283
250 220 194 187 178 188 205 205 204 199 192 206 209 207 214 207 206 209 214 222 237 245 230 233 240 244 249 250 252 253 250 249 249 245 251 258 259 261 264 268 270 272 274 280
246 239 179 185 201 200 182 180 183 192 203 196 195 198 200 205 212 217 220 228 233 242 234 241 246 244 250 258 257 257 256 252 245 249 255 254 254 255 260 265 271 274 277 284
239 200 189 195 190 187 174 182 199 199 195 195 201 208 218 226 222 213 214 231 233 240 245 249 247 246 251 254 253 253 253 253 249 249 248 245 243 244 244 248 255 266 271 279
229 195 193 203 202 200 216 231 220 209 209 212 214 216 224 239 232 222 218 223 236 241 246 244 246 251 259 263 256 256 255 252 247 246 244 240 240 244 245 246 249 255 265 270
254 233 202 184 197 207 217 241 225 220 223 217 216 223 222 232 217 218 227 224 232 239 242 238 243 246 247 245 246 250 255 253 247 246 243 235 233 238 244 245 249 258 267 273
207 179 186 204 195 184 170 101 126 168 207 223 222 223 218 212 210 213 205 212 231 237 244 246 244 242 244 245 249 245 248 252 249 247 244 240 239 239 243 249 256 261 266 271
158 164 172 192 195 222 209 165 130 128 157 182 194 199 198 206 213 208 207 224 232 240 244 248 250 251 252 257 258 260 254 252 253 250 248 247 249 252 256 258 259 263 267 271